Location: Most
(50.5133°N, 13.6207°E)
Time: 18:09:08
(UTC+02:00)

ISS - Pass Details

Date: 30 September 2021
Orbit: 418 x 423 km, 51.6° (Epoch: 18 October)

Event Time Altitude Azimuth Distance (km) Brightness Sun altitude
Rises 19:25:37 0° 282° (WNW) 2,365 2.4 -7.2°
Reaches altitude 10° 19:27:43 10° 283° (WNW) 1,501 0.7 -7.5°
Maximum altitude 19:31:05 85° 13° (NNE) 426 -3.8 -8.1°
Enters shadow 19:34:12 12° 102° (ESE) 1,394 -1.8 -8.5°
